Weather History for Salt Lake City, UT

Change the Weather History Date:

Thursday, May 15, 2014

  Actual Average Record
Temperature  
Mean Temperature 62 °F 60 °F  
Max Temperature 77 °F 72 °F 90 °F (2012)
Min Temperature 46 °F 48 °F 30 °F (1896)
Degree Days  
Heating Degree Days 3 7  
Month to date heating degree days 153 129  
Since 1 July heating degree days 5012 5485  
Cooling Degree Days 0 1  
Month to date cooling degree days 6 14  
Year to date cooling degree days 6 18  
Growing Degree Days 12 (Base 50)    
Moisture  
Dew Point 33 °F    
Average Humidity 40    
Maximum Humidity 61    
Minimum Humidity 19    
Precipitation  
Precipitation 0.00 in 0.07 in 1.17 in (1881)
Month to date precipitation 0.97 1.02  
Year to date precipitation 6.40 7.30  
Snow  
Snow 0.00 in 0.00 in 2.90 in (1955)
Month to date snowfall 0.0 0.3  
Since 1 July snowfall 35.5 56.2  
Snow Depth 0.00 in    
Sea Level Pressure  
Sea Level Pressure 30.12 in    
Wind  
Wind Speed 7 mph (SE)    
Max Wind Speed 13 mph    
Max Gust Speed 17 mph    
Visibility 10 miles    
Events      
T = Trace of Precipitation, MM = Missing Value Source: NWS Daily Summary

Daily Weather History Graph

Daily Weather History Graph

Search for Another Location

Airport:

Trip Planner

Search our weather history database for the weather conditions in past years. The results will help you decide how hot, cold, wet, or windy it might be!

Date:

Astronomy

May. 15, 2014 Rise Set
Actual Time 6:10 AM MDT 8:38 PM MDT
Civil Twilight 5:39 AM MDT 9:09 PM MDT
Nautical Twilight 5:00 AM MDT 9:48 PM MDT
Astronomical Twilight 4:17 AM MDT 10:31 PM MDT
Moon 9:50 PM MDT (5/15) 7:00 AM MDT (5/15)
Length of Visible Light 15h 30m
Length of Day
14h 27m
Full, 99% of the Moon is Illuminated
May 15
Full
May 21
Last Quarter
May 28
New
Jun 5
First Quarter
Jun 12
Full

Hourly Weather History & Observations

Time (MDT) Temp. Dew Point Humidity Pressure Visibility Wind Dir Wind Speed Gust Speed Precip Events Conditions
12:53 AM 52.0 °F 30.9 °F 45% 30.18 in 10.0 mi SSE 8.1 mph - N/A   Clear
1:53 AM 50.0 °F 30.0 °F 46% 30.18 in 10.0 mi SSE 8.1 mph - N/A   Partly Cloudy
2:53 AM 50.0 °F 32.0 °F 50% 30.18 in 10.0 mi SE 9.2 mph - N/A   Partly Cloudy
3:53 AM 48.0 °F 32.0 °F 54% 30.18 in 10.0 mi SE 9.2 mph - N/A   Clear
4:53 AM 48.0 °F 35.1 °F 61% 30.17 in 10.0 mi SE 9.2 mph - N/A   Clear
5:53 AM 48.0 °F 35.1 °F 61% 30.17 in 10.0 mi SE 8.1 mph - N/A   Partly Cloudy
6:53 AM 48.9 °F 35.1 °F 59% 30.19 in 10.0 mi SSE 8.1 mph - N/A   Partly Cloudy
7:53 AM 55.0 °F 34.0 °F 45% 30.19 in 10.0 mi SE 8.1 mph - N/A   Partly Cloudy
8:53 AM 59.0 °F 36.0 °F 42% 30.19 in 10.0 mi SE 6.9 mph - N/A   Partly Cloudy
9:53 AM 64.0 °F 35.1 °F 34% 30.18 in 10.0 mi South 5.8 mph - N/A   Partly Cloudy
10:53 AM 68.0 °F 33.1 °F 27% 30.18 in 10.0 mi Variable 4.6 mph - N/A   Partly Cloudy
11:53 AM 72.0 °F 28.9 °F 20% 30.17 in 10.0 mi Calm Calm - N/A   Scattered Clouds
1:53 PM 73.9 °F 30.9 °F 21% 30.14 in 10.0 mi NNW 9.2 mph - N/A   Mostly Cloudy
2:53 PM 75.0 °F 33.1 °F 22% 30.12 in 10.0 mi North 9.2 mph - N/A   Scattered Clouds
3:53 PM 77.0 °F 34.0 °F 21% 30.10 in 10.0 mi NNE 9.2 mph - N/A   Mostly Cloudy
4:53 PM 75.0 °F 32.0 °F 21% 30.09 in 10.0 mi Variable 4.6 mph - N/A   Mostly Cloudy
5:53 PM 75.9 °F 34.0 °F 22% 30.07 in 10.0 mi North 9.2 mph - N/A   Mostly Cloudy
6:53 PM 75.9 °F 32.0 °F 20% 30.05 in 10.0 mi Variable 3.5 mph - N/A   Mostly Cloudy
7:53 PM 72.0 °F 32.0 °F 23% 30.04 in 10.0 mi North 4.6 mph - N/A   Mostly Cloudy
8:53 PM 66.9 °F 32.0 °F 27% 30.03 in 10.0 mi ESE 6.9 mph - N/A   Mostly Cloudy
9:53 PM 62.1 °F 34.0 °F 35% 30.04 in 10.0 mi SSE 8.1 mph - N/A   Mostly Cloudy
10:53 PM 61.0 °F 32.0 °F 34% 30.02 in 10.0 mi SSE 6.9 mph - N/A   Mostly Cloudy
11:53 PM 60.1 °F 32.0 °F 35% 30.01 in 10.0 mi SSE 6.9 mph - N/A   Mostly Cloudy